Regional Weather Roundup
Issued by NWS

Home | Current Version | Previous Version | Text Only | Print | Product List | Glossary On
Versions: 1 2 3 4 5 6 7 8 9 10 11 12 13 14 15 16 17 18 19 20 21 22 23 24 25 26 27 28 29 30 31 32 33 34 35 36 37 38 39 40 41 42 43 44 45 46 47 48 49 50
000
ASUS42 KFFC 230410
RWRGA
WEATHER ROUNDUP FOR GEORGIA
NATIONAL WEATHER SERVICE PEACHTREE CITY GA
1200 AM EDT FRI JUN 23 2017

NOTE: "FAIR" INDICATES FEW OR NO CLOUDS BELOW 12,000 FEET WITH NO
SIGNIFICANT WEATHER AND/OR OBSTRUCTIONS TO VISIBILITY.

* = USE WITH CAUTION. THE STATIONS MARKED WITH AN ASTERISK MAY NOT
REPORT WEATHER SUCH AS PRECIPITATION, FOG, OR THUNDER AND ARE NOT
QUALITY CONTROLLED BY NWS.

THE REMARK "TC" DENOTES TEMPERATURE READING IN DEGREES CELSIUS.

GAZ001>058-230500-
NORTH GEORGIA

CITY           SKY/WX    TMP DP  RH WIND       PRES   REMARKS
ATLANTA        MOCLDY    74  72  93 S7        30.05S
ATHENS         CLOUDY    72  72 100 CALM      30.06F
CHAMBLEE       PTCLDY    73  70  90 S3        30.05S
PEACHTREE CITY PTCLDY    72  72 100 SE5       30.05S
ROME           CLOUDY    76  76 100 S5        30.00S
WEST ATLANTA   CLOUDY    74  74 100 CALM      30.04S
GAINESVILLE    MOCLDY    72  72 100 SE3       30.09S
CARTERSVILLE   MOCLDY    74  74 100 S5        30.03S


CITY           SKY/WX    TMP DP  RH WIND       PRES   REMARKS
DALTON*        CLOUDY    73  73 100 E8        30.01S
MARIETTA       CLOUDY    74  71  93 SE5       30.05R
CANTON*        MOCLDY    73  73 100 CALM      30.07S
$$

GAZ059>098-102>109-230500-
CENTRAL GEORGIA

CITY           SKY/WX    TMP DP  RH WIND       PRES   REMARKS
AUGUSTA-BUSH   CLOUDY    81  77  88 S7        30.05R
AUGUSTA-DANIEL MOCLDY    81  74  79 S8        30.07R
COLUMBUS       CLEAR     77  72  84 S6        30.03R
MACON          PTCLDY    73  71  93 CALM      30.05R
ROBINS AFB     PTCLDY    73  72  97 CALM      30.04S


CITY           SKY/WX    TMP DP  RH WIND       PRES   REMARKS
LAGRANGE*      CLEAR     76  76  98 S5        30.04S
SYLVANIA*      PTCLDY    79  78  96 S5        30.09R
MILLEDGEVILLE* MOCLDY    73  73 100 CALM      30.06R
$$

GAZ099>101-110>166-230500-
SOUTH GEORGIA

CITY           SKY/WX    TMP DP  RH WIND       PRES   REMARKS
SAVANNAH       MOCLDY    81  75  82 S9        30.08S
VALDOSTA       CLEAR     74  73  97 E3        30.06R
ALMA           CLOUDY    78  74  87 SE3       30.08R
ST SIMONS      PTCLDY    82  76  81 S8G23     30.09R
FT STEWART     PTCLDY    79  75  88 SE5       30.06R
ALBANY         CLEAR     78  75  90 S3        30.07R
HUNTER AFB     PTCLDY    81  77  88 S3        30.06R
MOODY AFB      CLEAR     78  74  90 SE3       30.06R
BRUNSWICK      PTCLDY    81  79  94 S8        30.09S


CITY           SKY/WX    TMP DP  RH WIND       PRES   REMARKS
BAINBRIDGE*    CLEAR     84  81  89 S5        30.05R HX  98
MOULTRIE*      CLEAR     77  73  88 CALM      30.08R
VIDALIA*       PTCLDY    77  75  94 S3        30.08S
DOUGLAS*       PTCLDY    77  73  88 CALM      30.09R
$$



USA.gov is the U.S. government's official web portal to all federal, state and local government web resources and services.